Tracking 30105 objects as of 25-Jan-2025
HD Live streaming from Space Station
objects crossing your sky now

COSMOS 1275 DEB

Track COSMOS 1275 DEB now!
10-day predictions


NORAD ID: 42145
Int'l Code: 1981-053RH
Perigee: 642.7 km
Apogee: 673.4 km
Inclination: 83.3 °
Period: 97.7 minutes
Semi major axis: 7029 km
RCS: Unknown
Launch date: June 4, 1981
Source: Commonwealth of Independent States (former USSR) (CIS)
Launch site: PLESETSK MISSILE AND SPACE COMPLEX (PKMTR)

Note: This is SATELLITE DEBRIS
Your satellite tracking list
Your tracking list is empty




NASA's NSSDC Master Catalog

Two Line Element Set (TLE):
1 42145U 81053RH  25023.39379575  .00059032  00000-0  90462-2 0  9995
2 42145  83.3498 180.5341 0021813 265.7550  94.1169 14.73192518587999
Source of the keplerian elements: AFSPC